Location: Hiekkapohja
(62.3333°N, 25.7833°E)
Time: 19:39:35
(UTC+00:00)

Okean 1-7 Rocket - Pass Details

Date: 07 August 2020
Orbit: 617 x 648 km, 82.5° (Epoch: 21 September)

Event Time Altitude Azimuth Distance (km) Brightness Sun altitude
Rises 00:43:55 0° 344° (NNW) 2,909 7.6 -6.6°
Reaches altitude 10° 00:46:09 10° 342° (NNW) 2,000 6.7 -6.4°
Maximum altitude 00:50:33 71° 260° (W) 662 3.6 -6.1°
Drops below altitude 10° 00:54:58 10° 176° (S) 1,996 5.7 -5.8°
Sets 00:57:11 0° 174° (S) 2,903 6.6 -5.7°
